International Virtual Aviation Organisation

Russian Federation and Kazakhstan MCD

 

Карточка аэропорта UWKD

Внимание!
Информация на этой странице в стадии наполнения.
Если вы не увидели какой-то информации, или заметили неточность - пожалуйста сообщите нам!
Спасибо!
Команда RU-STAFF
Название аэропортаКазань
Название аэропорта (англ.)Kazan
Превышение413 ft. (125.9 m.)
Координаты55°36.498', 49°16.668'
Высота перехода900m
Эшелон переходаQFE>=749mm:FL050; QFE<749=>722:FL060; QFE<722:FL070
Коды ответчика6732-6737
Зона ОрВДСамара РПИ (UWWW)
Данные METARUWKD 250400Z 14005MPS 2200 -SN OVC005 M02/M03 Q1013 R11/490532 NOSIG RMK QFE750/1000
Проноз погоды (TAF)UWKD 250200Z 2503/2603 15006G12MPS 2100 -SN BLSN OVC005 TXM01/2511Z TNM03/2603Z TEMPO 2503/2509 0800 +SHSN BLSN BKN003 BKN013CB FM251200 12005MPS 3100 -SN BR OVC007 TEMPO 2518/2603 0800 FZFG VV003
NOTAMshow/hide NOTAM
AWOS   TABLE

Информация о ВПП

ВПП Длина ВПП (м.) Покрытие Курс ВПП Частота ILS
113750Цементобетон112110.5
293750Цементобетон292111.7

Диспетчерские позиции

Позывной Наименование органа УВД Частота
UWKD_R_APPКазань-Круг119.400
UWKD_TWRКазань-Старт120.300
UWKD_GNDКазань-Руление121.7
UWKD_APPКазань - Подход128.625



Спутниковое изображение